Regional Weather Roundup
Issued by NWS

Home | Current Version | Previous Version | Text Only | Print | Product List | Glossary Off
Versions: 1 2 3 4 5 6 7 8 9 10 11 12 13 14 15 16 17 18 19 20 21 22 23 24 25 26 27

000
ASUS45 KCYS 210510
RWRWY

WYOMING REGIONAL WEATHER ROUNDUP
NATIONAL WEATHER SERVICE CHEYENNE WY
1100 PM MDT WED SEP 20 2017

NOTE:  "FAIR" INDICATES FEW OR NO CLOUDS BELOW 12,000 FEET
WITH NO SIGNIFICANT WEATHER AND/OR OBSTRUCTIONS TO VISIBILITY.

WYZ001-210600-
YELLOWSTONE NATIONAL PARK

CITY           SKY/WX    TMP DP  RH WIND       PRES   REMARKS
LK YELLOWSTONE   N/A     35  35 100 VRB3      29.81F
W YELLOWSTONE  NOT AVBL

$$
WYZ002>013-054>058-071-098>099-210600-
NORTHERN WYOMING

CITY           SKY/WX    TMP DP  RH WIND       PRES   REMARKS
JACKSON        CLOUDY    41  39  93 SW6       29.81R
CODY           FAIR      52  33  48 E10       29.72F
GREYBULL       CLOUDY    56  37  49 E5        29.66F
WORLAND        CLOUDY    56  37  49 VRB3      29.68F
SHERIDAN       FAIR      58  31  35 S5        29.67F
BUFFALO        FAIR      53  27  36 SE7       29.74F
GILLETTE       CLOUDY    58  33  39 S10       29.74F
HULETT         CLOUDY    59  32  36 CALM      29.79R
NEWCASTLE      FAIR      63  28  27 E14G21    29.79F

$$
WYZ014>020-022>026-101>103-210600-
CENTRAL WYOMING

CITY           SKY/WX    TMP DP  RH WIND       PRES   REMARKS
BIG PINEY      CLOUDY    47  35  63 CALM      29.83R
PINEDALE       RAIN      43  36  75 NW7       29.85R
DUBOIS         LGT RAIN  37  34  87 NW6       29.82S WCI  33
LANDER           N/A    N/A N/A N/A MISG      29.72S
RIVERTON       MOCLDY    53  30  41 NE5       29.72F
CASPER         FAIR      48  36  63 E7        29.77F
DOUGLAS        MOCLDY    58  33  39 E10       29.78F

$$
WYZ021-027>030-104>119-210600-
SOUTHERN WYOMING

CITY           SKY/WX    TMP DP  RH WIND       PRES   REMARKS
EVANSTON       LGT RAIN  52  36  54 N8        29.76F
KEMMERER         N/A     45  36  70 N9        29.79F
FORT BRIDGER   CLOUDY    52  37  56 N12       29.80S
ROCK SPRINGS   FAIR      51  36  56 VRB5      29.77F
DIXON          FAIR      55  35  47 S7        29.86F
RAWLINS        FAIR      48  37  65 CALM      29.84F
SARATOGA       FAIR      50  36  57 S7        29.87F
LARAMIE        FAIR      49  29  46 SE13      29.91F
CHEYENNE       FAIR      55  29  36 S5        29.89F
TORRINGTON     FAIR      60  32  34 SE16G23   29.79F
PINE BLUFFS    FAIR      61  30  31 S23G31    29.86F

$$




USA.gov is the U.S. government's official web portal to all federal, state and local government web resources and services.